When you browse on this site, cookies collect data to enhance your experience and personalize the content and advertising you see.
Visit our Privacy Policy to learn more. By continuing to use the site, you agree to this use of cookies and data.
  • In Netherlands
  • List of Countries
  • For 7 days
  • Water Temperature
  • Satellite Maps
  • Weather Map
  • Weather Widgets
  • user-avatar
    Login

    Hourly Weather Asadabad

    Today, 19 March, Tuesday

    Time Temperature Precipitation Wind Pressure Humidity
    00:00 +10°C° 2.7 mm 3 mps 656 mmHg 71%
    01:00 +10°C° 2.7 mm 3 mps 656 mmHg 75%
    02:00 +9°C° 2.7 mm 3 mps 655 mmHg 80%
    03:00 +9°C° 4.8 mm 3 mps 655 mmHg 81%
    04:00 +8°C° 4.8 mm 3 mps 654 mmHg 82%
    05:00 +8°C° 4.8 mm 2 mps 654 mmHg 83%
    06:00 +8°C° 4.2 mm 3 mps 654 mmHg 84%
    07:00 +8°C° 4.2 mm 3 mps 654 mmHg 84%
    08:00 +8°C° 4.2 mm 3 mps 654 mmHg 84%
    09:00 +8°C° 1.8 mm 3 mps 654 mmHg 82%
    10:00 +8°C° 1.8 mm 3 mps 655 mmHg 80%
    11:00 +9°C° 1.8 mm 2 mps 655 mmHg 78%
    12:00 +10°C° 0.1 mm 2 mps 655 mmHg 73%
    13:00 +12°C° 0.1 mm 2 mps 655 mmHg 69%
    14:00 +13°C° 0.1 mm 2 mps 656 mmHg 64%
    15:00 +13°C° 0.1 mm 2 mps 655 mmHg 64%
    16:00 +13°C° 0.1 mm 2 mps 655 mmHg 64%
    17:00 +13°C° 0.1 mm 2 mps 655 mmHg 64%
    18:00 +12°C° 0.2 mm 2 mps 655 mmHg 66%
    19:00 +12°C° 0.2 mm 2 mps 655 mmHg 68%
    20:00 +10°C° 0.2 mm 2 mps 656 mmHg 71%
    21:00 +9°C° 0 mm 2 mps 656 mmHg 68%
    22:00 +9°C° 0 mm 2 mps 656 mmHg 64%
    23:00 +8°C° 0 mm 3 mps 656 mmHg 61%

    Tomorrow, 20 March, Wednesday

    Time Temperature Precipitation Wind Pressure Humidity
    00:00 +8°C° 0 mm 3 mps 655 mmHg 58%
    01:00 +7°C° 0 mm 3 mps 655 mmHg 56%
    02:00 +7°C° 0 mm 3 mps 655 mmHg 53%
    03:00 +7°C° 0 mm 3 mps 655 mmHg 52%
    04:00 +7°C° 0 mm 3 mps 655 mmHg 50%
    05:00 +7°C° 0 mm 3 mps 655 mmHg 49%
    06:00 +8°C° 0 mm 3 mps 655 mmHg 49%
    07:00 +9°C° 0 mm 3 mps 656 mmHg 48%
    08:00 +10°C° 0 mm 2 mps 656 mmHg 47%
    09:00 +12°C° 0 mm 2 mps 656 mmHg 46%
    10:00 +13°C° 0 mm 1 mps 656 mmHg 45%
    11:00 +14°C° 0 mm 1 mps 656 mmHg 44%
    12:00 +14°C° 0 mm 1 mps 656 mmHg 44%
    13:00 +14°C° 0 mm 1 mps 656 mmHg 44%
    14:00 +14°C° 0 mm 1 mps 656 mmHg 44%
    15:00 +14°C° 0 mm 1 mps 656 mmHg 45%
    16:00 +14°C° 0 mm 1 mps 656 mmHg 46%
    17:00 +14°C° 0 mm 1 mps 656 mmHg 48%
    18:00 +13°C° 0 mm 1 mps 657 mmHg 50%
    19:00 +12°C° 0 mm 2 mps 657 mmHg 52%
    20:00 +10°C° 0 mm 2 mps 657 mmHg 55%
    21:00 +9°C° 0 mm 3 mps 658 mmHg 54%
    22:00 +9°C° 0 mm 3 mps 658 mmHg 53%
    23:00 +8°C° 0 mm 3 mps 658 mmHg 52%

    Day after tomorrow, 21 March, Thursday

    Time Temperature Precipitation Wind Pressure Humidity
    00:00 +8°C° 0 mm 3 mps 658 mmHg 50%
    01:00 +8°C° 0 mm 3 mps 658 mmHg 49%
    02:00 +8°C° 0 mm 3 mps 658 mmHg 47%
    03:00 +7°C° 0 mm 3 mps 658 mmHg 46%
    04:00 +7°C° 0 mm 3 mps 658 mmHg 45%
    05:00 +7°C° 0 mm 3 mps 658 mmHg 44%
    06:00 +8°C° 0 mm 3 mps 658 mmHg 42%
    07:00 +9°C° 0 mm 3 mps 659 mmHg 41%
    08:00 +10°C° 0 mm 3 mps 659 mmHg 39%
    09:00 +12°C° 0 mm 2 mps 659 mmHg 38%
    10:00 +14°C° 0 mm 1 mps 660 mmHg 36%
    11:00 +15°C° 0 mm 1 mps 660 mmHg 35%
    12:00 +16°C° 0 mm 1 mps 659 mmHg 35%
    13:00 +16°C° 0 mm 1 mps 659 mmHg 36%
    14:00 +16°C° 0 mm 1 mps 659 mmHg 37%
    15:00 +16°C° 0 mm 1 mps 659 mmHg 37%
    16:00 +16°C° 0 mm 1 mps 659 mmHg 38%
    17:00 +16°C° 0 mm 1 mps 659 mmHg 38%
    18:00 +15°C° 0 mm 1 mps 659 mmHg 42%
    19:00 +14°C° 0 mm 2 mps 660 mmHg 45%
    20:00 +12°C° 0 mm 2 mps 660 mmHg 49%
    21:00 +12°C° 0 mm 2 mps 660 mmHg 48%
    22:00 +10°C° 0 mm 3 mps 660 mmHg 48%
    23:00 +10°C° 0 mm 3 mps 661 mmHg 47%

    22 March, Friday

    Time Temperature Precipitation Wind Pressure Humidity
    00:00 +9°C° 0 mm 3 mps 660 mmHg 46%
    01:00 +9°C° 0 mm 3 mps 660 mmHg 44%
    02:00 +8°C° 0 mm 3 mps 660 mmHg 43%
    03:00 +8°C° 0 mm 3 mps 660 mmHg 42%
    04:00 +8°C° 0 mm 3 mps 660 mmHg 41%
    05:00 +8°C° 0 mm 3 mps 660 mmHg 39%
    06:00 +9°C° 0 mm 3 mps 660 mmHg 38%
    07:00 +10°C° 0 mm 3 mps 660 mmHg 36%
    08:00 +11°C° 0 mm 3 mps 660 mmHg 35%
    09:00 +13°C° 0 mm 2 mps 661 mmHg 33%
    10:00 +15°C° 0 mm 2 mps 661 mmHg 31%
    11:00 +16°C° 0 mm 1 mps 661 mmHg 29%
    12:00 +16°C° 0 mm 1 mps 661 mmHg 29%
    13:00 +18°C° 0 mm 1 mps 660 mmHg 30%
    14:00 +18°C° 0 mm 1 mps 660 mmHg 30%
    15:00 +18°C° 0 mm 1 mps 660 mmHg 31%
    16:00 +18°C° 0 mm 1 mps 660 mmHg 32%
    17:00 +18°C° 0 mm 1 mps 660 mmHg 32%
    18:00 +15°C° 0 mm 1 mps 660 mmHg 36%
    19:00 +14°C° 0 mm 2 mps 660 mmHg 39%
    20:00 +13°C° 0 mm 2 mps 660 mmHg 43%
    21:00 +12°C° 0 mm 2 mps 660 mmHg 43%
    22:00 +11°C° 0 mm 3 mps 660 mmHg 43%
    23:00 +10°C° 0 mm 3 mps 660 mmHg 42%

    23 March, Saturday

    Time Temperature Precipitation Wind Pressure Humidity
    00:00 +10°C° 0 mm 3 mps 660 mmHg 43%
    01:00 +10°C° 0 mm 3 mps 659 mmHg 43%
    02:00 +11°C° 0 mm 3 mps 659 mmHg 43%
    03:00 +10°C° 0 mm 3 mps 659 mmHg 44%
    04:00 +10°C° 0 mm 3 mps 659 mmHg 45%
    05:00 +10°C° 0 mm 3 mps 658 mmHg 47%
    06:00 +10°C° 0 mm 3 mps 659 mmHg 45%
    07:00 +12°C° 0 mm 2 mps 659 mmHg 42%
    08:00 +13°C° 0 mm 2 mps 660 mmHg 40%
    09:00 +14°C° 0 mm 2 mps 660 mmHg 38%
    10:00 +15°C° 0 mm 1 mps 660 mmHg 35%
    11:00 +18°C° 0 mm 1 mps 660 mmHg 32%
    12:00 +18°C° 0 mm 1 mps 660 mmHg 32%
    13:00 +19°C° 0 mm 1 mps 659 mmHg 32%
    14:00 +19°C° 0 mm 1 mps 659 mmHg 32%
    15:00 +19°C° 0 mm 1 mps 659 mmHg 33%
    16:00 +19°C° 0 mm 1 mps 658 mmHg 33%
    17:00 +19°C° 0 mm 1 mps 658 mmHg 34%
    18:00 +18°C° 0 mm 1 mps 658 mmHg 37%
    19:00 +15°C° 0 mm 2 mps 658 mmHg 41%
    20:00 +14°C° 0 mm 2 mps 658 mmHg 45%
    21:00 +14°C° 0 mm 2 mps 658 mmHg 44%
    22:00 +13°C° 0 mm 2 mps 659 mmHg 43%
    23:00 +12°C° 0 mm 3 mps 659 mmHg 43%

    24 March, Sunday

    Time Temperature Precipitation Wind Pressure Humidity
    00:00 +12°C° 0 mm 3 mps 658 mmHg 42%
    01:00 +11°C° 0 mm 3 mps 658 mmHg 41%
    02:00 +11°C° 0 mm 3 mps 657 mmHg 41%
    03:00 +11°C° 0 mm 3 mps 657 mmHg 41%
    04:00 +10°C° 0 mm 3 mps 657 mmHg 41%
    05:00 +10°C° 0 mm 3 mps 657 mmHg 42%
    06:00 +11°C° 0 mm 3 mps 658 mmHg 40%
    07:00 +12°C° 0 mm 3 mps 658 mmHg 39%
    08:00 +13°C° 0 mm 3 mps 659 mmHg 37%
    09:00 +15°C° 0 mm 2 mps 659 mmHg 35%
    10:00 +17°C° 0 mm 2 mps 659 mmHg 33%
    11:00 +19°C° 0 mm 1 mps 660 mmHg 31%
    12:00 +19°C° 0 mm 1 mps 659 mmHg 30%
    13:00 +20°C° 0 mm 1 mps 659 mmHg 30%
    14:00 +21°C° 0 mm 1 mps 659 mmHg 30%
    15:00 +20°C° 0 mm 1 mps 658 mmHg 30%
    16:00 +20°C° 0 mm 1 mps 658 mmHg 31%
    17:00 +20°C° 0 mm 1 mps 658 mmHg 31%
    18:00 +19°C° 0 mm 1 mps 658 mmHg 34%
    19:00 +17°C° 0 mm 2 mps 658 mmHg 38%
    20:00 +16°C° 0 mm 2 mps 659 mmHg 41%
    21:00 +16°C° 0 mm 2 mps 659 mmHg 42%
    22:00 +14°C° 0 mm 3 mps 659 mmHg 43%
    23:00 +14°C° 0 mm 3 mps 659 mmHg 45%
    Show more